Regional Weather Roundup
Issued by NWS

Home | Current Version | Previous Version | Text Only | Print | Product List | Glossary On
Versions: 1 2 3 4 5 6 7 8 9 10 11 12 13 14 15 16 17 18 19 20 21 22 23 24 25 26 27 28 29 30 31 32 33 34 35 36 37 38 39 40 41 42 43 44 45 46 47 48 49 50
705
ASUS42 KFFC 161510
RWRGA
WEATHER ROUNDUP FOR GEORGIA
NATIONAL WEATHER SERVICE PEACHTREE CITY GA
1000 AM EST TUE JAN 16 2018

NOTE: "FAIR" INDICATES FEW OR NO CLOUDS BELOW 12,000 FEET WITH NO
SIGNIFICANT WEATHER AND/OR OBSTRUCTIONS TO VISIBILITY.

* = USE WITH CAUTION. THE STATIONS MARKED WITH AN ASTERISK MAY NOT
REPORT WEATHER SUCH AS PRECIPITATION, FOG, OR THUNDER AND ARE NOT
QUALITY CONTROLLED BY NWS.

THE REMARK "TC" DENOTES TEMPERATURE READING IN DEGREES CELSIUS.

GAZ001>058-161600-
NORTH GEORGIA

CITY           SKY/WX    TMP DP  RH WIND       PRES   REMARKS
ATLANTA        FAIR      40  27  59 SW5       30.42R
ATHENS         FAIR      38  25  59 NW5       30.45R WCI  34
CHAMBLEE       FAIR      38  24  57 NW3       30.43R
PEACHTREE CITY FAIR      42  25  50 W5        30.43R
ROME           FAIR      34  28  79 CALM      30.43R
WEST ATLANTA   FAIR      38  29  70 CALM      30.44R
GAINESVILLE    FAIR      38  24  57 S3        30.43R
CARTERSVILLE   FAIR      38  28  67 E5        30.44S WCI  34


CITY           SKY/WX    TMP DP  RH WIND       PRES   REMARKS
DALTON*        FAIR      34  28  80 CALM      30.45S
LAWRENCEVILLE* FAIR      37  24  59 CALM      30.44R
MARIETTA       PTSUNNY   38  26  61 W6        30.42R WCI  34
KENNESAW*      FAIR      36  26  67 CALM      30.44R
CANTON*        FAIR      36  28  75 E3        30.43S
BLAIRSVILLE*   FAIR      33  24  70 CALM      30.39S
$$

GAZ059>098-102>109-161600-
CENTRAL GEORGIA

CITY           SKY/WX    TMP DP  RH WIND       PRES   REMARKS
AUGUSTA-BUSH   FAIR      36  28  73 SE3       30.47S
AUGUSTA-DANIEL FAIR      38  23  55 S8        30.47R WCI  32
COLUMBUS       FAIR      40  28  62 S3        30.45R
MACON          FAIR      39  30  70 SE3       30.46R
ROBINS AFB     MOSUNNY   39  28  65 SE7       30.46R WCI  34


CITY           SKY/WX    TMP DP  RH WIND       PRES   REMARKS
LAGRANGE*      FAIR      41  31  66 NW5       30.44R
SYLVANIA*      FAIR      42  26  51 SE5       30.49S
MILLEDGEVILLE* FAIR      39  30  70 S5        30.46R
$$

GAZ099>101-110>166-161600-
SOUTH GEORGIA

CITY           SKY/WX    TMP DP  RH WIND       PRES   REMARKS
SAVANNAH       FAIR      44  23  43 E5        30.50S
VALDOSTA       FAIR      46  32  58 SE7       30.45F
ALMA           FAIR      45  26  47 VRB6      30.47S
ST SIMONS      FAIR      48  38  68 N9        30.48R
FT STEWART     FAIR      43  23  45 NE5       30.47F
ALBANY         FAIR      43  32  65 S6        30.48S
HUNTER AFB     FAIR      44  21  39 NE7         N/A
MOODY AFB      FAIR      46  31  56 E5        30.45S
BRUNSWICK      FAIR      45  30  57 N6        30.49F


CITY           SKY/WX    TMP DP  RH WIND       PRES   REMARKS
BAINBRIDGE*    FAIR      46  37  71 SE5       30.47R
MOULTRIE*      FAIR      45  32  61 CALM      30.47S
VIDALIA*       FAIR      45  28  53 SE5       30.48S
WAYCROSS*      FAIR      44  25  47 E6        30.48S
DOUGLAS*       FAIR      43  27  52 E6        30.49S
$$




USA.gov is the U.S. government's official web portal to all federal, state and local government web resources and services.